Simultaneous Nadir Overpasses (SNOs) Predictions

Prediction of SNOs between GOES-15 and NPP Satellite Orbit:

Table of predicted SNOs for the next 14.0 days since TLE Epoch: 7/1/2013
Index Date Time (GOES-15) GOES-15 Lat,Lon NPP Lat,Lon Distance(km) Time Diff (sec)
1 07/01/2013 22:33:34 0.15,-135.09 -0.37,-137.52 277.08 80
2 07/02/2013 22:17:28 0.14,-135.12 0.61,-132.98 243.47 80
3 07/04/2013 10:36:37 -0.16,-135.14 0.52,-138.26 354.64 80
4 07/05/2013 10:20:31 -0.16,-135.17 -0.46,-133.72 165.38 80
5 07/06/2013 22:39:48 0.18,-135.24 -0.69,-139.02 431.81 80
6 07/07/2013 22:23:43 0.17,-135.26 0.36,-134.49 88.07 80
7 07/10/2013 10:26:46 -0.18,-135.30 -0.20,-135.23 8.75 80
8 07/12/2013 22:27:17 0.19,-135.38 0.05,-135.99 70.16 80
9 07/13/2013 22:11:11 0.18,-135.40 1.04,-131.45 449.01 80




NCC Satellite Simultaneous Nadir Overpasses (SNOs) Prediction Service
